Location: Lincoln Park
(32.7042°N, 117.0895°W)
Time: 13:12:29
(UTC+00:00)

Cosmos 1484 Rocket - Pass Details

Date: 26 June 2022
Orbit: 500 x 554 km, 97.5° (Epoch: 15 August)

Event Time Altitude Azimuth Distance (km) Brightness Sun altitude
Rises 12:04:34 0° 7° (N) 2,734 7.0 -7.6°
Reaches altitude 10° 12:06:44 10° 4° (N) 1,831 6.1 -7.2°
Maximum altitude 12:10:38 62° 284° (WNW) 617 2.9 -6.6°
Drops below altitude 10° 12:14:29 10° 203° (SSW) 1,795 4.9 -5.9°
Enters shadow 12:16:23 - 200° (SSW) 2,594 5.8 -5.5°
